Offutt Air Force Base, NE

9:44 AM CST on February 08, 2016 (GMT -0600)
Offutt Air Force Base

Weather History for KOFF - March, 2013

Change the Weather History Date:

Wednesday, March 27, 2013

  Actual Average Record
Temperature  
Mean Temperature 37 °F -  
Max Temperature 53 °F 53 °F 79 °F (2012)
Min Temperature 21 °F 33 °F 21 °F (2013)
Degree Days  
Heating Degree Days 28    
Moisture  
Dew Point 25 °F    
Average Humidity 65    
Maximum Humidity 96    
Minimum Humidity 36    
Precipitation  
Precipitation 0.00 in - - ()
Sea Level Pressure  
Sea Level Pressure 30.27 in    
Wind  
Wind Speed 7 mph (ESE)    
Max Wind Speed 15 mph    
Max Gust Speed 21 mph    
Visibility 10 miles    
Events      
Averages and records for this station are not official NWS values.
T = Trace of Precipitation, MM = Missing Value Source: NWS Daily Summary

Daily Weather History Graph

Daily Weather History Graph

Search for Another Location

Airport or City:

Trip Planner

Search our weather history database for the weather conditions in past years. The results will help you decide how hot, cold, wet, or windy it might be!

Date:

Astronomy

Mar. 27, 2013 Rise Set
Actual Time 7:14 AM CDT 7:43 PM CDT
Civil Twilight 6:47 AM CDT 8:11 PM CDT
Nautical Twilight 6:14 AM CDT 8:43 PM CDT
Astronomical Twilight 5:41 AM CDT 9:17 PM CDT
Moon 8:29 PM CDT (3/27) 7:05 AM CDT (3/27)
Length of Visible Light 13h 24m
Length of Day
12h 28m
Full, 100% of the Moon is Illuminated
Mar 27
Full
Apr 2
Last Quarter
Apr 10
New
Apr 18
First Quarter
Apr 25
Full

Hourly Weather History & Observations

Time (CDT) Temp. Windchill Dew Point Humidity Pressure Visibility Wind Dir Wind Speed Gust Speed Precip Events Conditions
12:55 AM 28.2 °F 23.1 °F 23.5 °F 83% 30.31 in 10.0 mi SSE 4.6 mph - N/A   Clear
1:55 AM 24.1 °F - 21.4 °F 89% 30.32 in 10.0 mi Calm Calm - N/A   Scattered Clouds
2:55 AM 21.0 °F - 19.9 °F 96% 30.30 in 10.0 mi Calm Calm - N/A   Clear
3:55 AM 25.5 °F 21.3 °F 21.9 °F 86% 30.29 in 10.0 mi South 3.5 mph - N/A   Clear
4:55 AM 27.0 °F 19.5 °F 23.4 °F 86% 30.27 in 10.0 mi SE 6.9 mph - N/A   Overcast
5:55 AM 25.7 °F 21.5 °F 21.7 °F 85% 30.28 in 10.0 mi SSE 3.5 mph - N/A   Clear
6:55 AM 22.8 °F 16.7 °F 20.5 °F 91% 30.29 in 10.0 mi ESE 4.6 mph - N/A   Clear
7:55 AM 26.1 °F 18.4 °F 22.3 °F 86% 30.30 in 10.0 mi ESE 6.9 mph - N/A   Clear
8:55 AM 31.5 °F 22.3 °F 23.7 °F 73% 30.31 in 10.0 mi ESE 11.5 mph - N/A   Clear
9:55 AM 37.0 °F 28.9 °F 23.2 °F 57% 30.31 in 10.0 mi East 12.7 mph - N/A   Clear
10:55 AM 42.1 °F 35.7 °F 22.6 °F 46% 30.30 in 10.0 mi ESE 11.5 mph - N/A   Clear
11:55 AM 45.0 °F 38.5 °F 22.6 °F 41% 30.29 in 10.0 mi ESE 13.8 mph - N/A   Clear
12:55 PM 44.1 °F 37.4 °F 23.5 °F 44% 30.27 in 10.0 mi SE 13.8 mph - N/A   Overcast
1:55 PM 47.5 °F - 25.5 °F 42% 30.26 in 10.0 mi ESE 11.5 mph 20.7 mph N/A   Scattered Clouds
2:55 PM 50.4 °F - 25.7 °F 38% 30.23 in 10.0 mi ESE 10.4 mph 19.6 mph N/A   Clear
3:55 PM 52.7 °F - 26.4 °F 36% 30.21 in 10.0 mi ESE 9.2 mph - N/A   Clear
4:55 PM 53.1 °F - 26.8 °F 36% 30.20 in 10.0 mi ESE 11.5 mph 19.6 mph N/A   Clear
5:55 PM 52.5 °F - 28.8 °F 40% 30.21 in 10.0 mi SE 12.7 mph 19.6 mph N/A   Clear
6:55 PM 50.2 °F - 28.6 °F 43% 30.22 in 10.0 mi SE 15.0 mph - N/A   Clear
7:55 PM 44.1 °F 39.0 °F 29.5 °F 57% 30.24 in 10.0 mi ESE 9.2 mph - N/A   Clear
8:55 PM 39.0 °F 35.7 °F 28.9 °F 67% 30.25 in 10.0 mi ESE 4.6 mph - N/A   Clear
9:55 PM 35.6 °F 29.9 °F 29.5 °F 78% 30.27 in 10.0 mi ESE 6.9 mph - N/A   Clear
10:55 PM 34.0 °F 28.8 °F 29.8 °F 85% 30.27 in 10.0 mi ESE 5.8 mph - N/A   Clear
11:55 PM 33.3 °F 28.9 °F 28.9 °F 84% 30.28 in 10.0 mi ESE 4.6 mph - N/A   Clear